CW0526 Weather Reports


time (UTC)temp
C
wind
direction
speed
KPH
gust
KPH
rain 1hr
cm
rain 24hr
cm
rain mn
cm
humidity
%
barometer
mb
20260508013602 8 160 0.0 8.0 0.00 0.51 0.08 85 1012.3
20260508013103 8 164 1.6 11.3 0.00 0.51 0.08 85 1012.3
20260508011102 8 168 3.2 12.9 0.03 0.51 0.08 85 1012.2
20260508010602 8 176 4.8 9.7 0.05 0.51 0.08 85 1012.3
20260508004602 8 179 6.4 12.9 0.08 0.51 0.08 84 1012.2
20260508003602 8 164 4.8 9.7 0.08 0.51 0.08 84 1012.2
20260508001602 8 160 1.6 9.7 0.05 0.48 0.05 83 1012.3
20260508000602 9 179 3.2 8.0 0.05 0.46 0.05 82 1012.4
20260507234102 9 168 8.0 16.1 0.00 0.43 0.00 80 1012.2
20260507233602 9 200 4.8 14.5 0.00 0.43 0.00 80 1012.1
20260507231102 9 158 8.0 16.1 0.00 0.43 0.00 80 1011.9
20260507230602 9 174 6.4 19.3 0.00 0.43 0.00 80 1011.9
20260507223603 9 153 6.4 14.5 0.00 0.43 0.43 80 1012.0
20260507223103 9 180 4.8 19.3 0.00 0.43 0.43 80 1012.0
20260507220104 9 175 8.0 22.5 0.00 0.43 0.43 80 1011.7
20260507213103 9 123 8.0 24.1 0.00 0.43 0.43 81 1011.6
20260507210104 10 178 9.7 19.3 0.00 0.43 0.43 80 1011.7
20260507204102 10 182 4.8 12.9 0.00 0.43 0.43 79 1011.7
20260507203602 10 172 8.0 24.1 0.00 0.43 0.43 78 1011.6
20260507201603 10 169 1.6 9.7 0.00 0.43 0.43 77 1011.6
20260507193104 11 156 3.2 14.5 0.00 0.43 0.43 74 1011.2
20260507191603 11 187 4.8 12.9 0.00 0.43 0.43 73 1011.1
20260507184602 12 170 9.7 19.3 0.00 0.43 0.43 70 1011.0
20260507183104 11 178 8.0 19.3 0.00 0.43 0.43 70 1011.0
20260507174602 12 181 4.8 11.3 0.00 0.43 0.43 66 1011.1
20260507174103 12 167 4.8 11.3 0.00 0.43 0.43 67 1011.1
20260507173603 12 164 4.8 9.7 0.00 0.43 0.43 67 1011.1
20260507173104 12 153 3.2 19.3 0.00 0.43 0.43 66 1011.2
20260507164103 13 178 9.7 22.5 0.00 0.43 0.43 62 1011.4
20260507161602 13 173 4.8 19.3 0.00 0.43 0.43 66 1011.3
20260507161102 13 175 8.0 14.5 0.00 0.43 0.43 66 1011.3
20260507160603 14 178 8.0 19.3 0.00 0.43 0.43 65 1011.3
20260507160104 14 295 4.8 19.3 0.00 0.43 0.43 66 1011.3
20260507151103 13 172 9.7 25.7 0.00 0.43 0.43 74 1011.3
20260507150105 13 124 9.7 24.1 0.00 0.43 0.43 74 1011.4
20260507144103 12 170 8.0 25.7 0.00 0.43 0.43 77 1011.7
20260507141103 12 193 9.7 20.9 0.00 0.43 0.43 78 1011.7
20260507140104 12 90 8.0 27.4 0.00 0.43 0.43 78 1011.7
20260507134603 12 169 4.8 22.5 0.00 0.43 0.43 80 1011.7
20260507131102 11 158 6.4 14.5 0.08 0.43 0.43 85 1011.8
20260507130602 11 182 8.0 19.3 0.08 0.43 0.43 85 1011.9
20260507130104 10 171 6.4 19.3 0.15 0.43 0.43 85 1011.9
20260507124102 10 175 8.0 14.5 0.43 0.43 0.43 84 1012.1
20260507123603 10 170 8.0 19.3 0.43 0.43 0.43 84 1012.1
20260507120603 10 170 4.8 11.3 0.33 0.33 0.33 81 1012.2
20260507120104 10 146 6.4 27.4 0.28 0.28 0.28 81 1012.2
20260507114602 11 184 11.3 33.8 0.00 0.00 0.00 79 1012.1
20260507111102 11 153 14.5 27.4 0.00 0.00 0.00 78 1012.0
20260507104103 11 143 9.7 22.5 0.00 0.00 0.00 79 1012.3
20260507103602 11 165 11.3 22.5 0.00 0.00 0.00 79 1012.3
20260507103104 11 118 14.5 32.2 0.00 0.00 0.00 78 1012.3
20260507101603 11 171 11.3 24.1 0.00 0.00 0.00 79 1012.4
20260507101103 11 178 12.9 32.2 0.00 0.00 0.00 79 1012.3
20260507094103 10 173 11.3 20.9 0.00 0.00 0.00 79 1012.2
20260507093104 10 96 9.7 24.1 0.00 0.00 0.00 80 1012.3
20260507091603 9 159 11.3 32.2 0.00 0.00 0.00 81 1012.2
20260507091103 9 179 9.7 24.1 0.00 0.00 0.00 81 1012.3
20260507084603 9 156 11.3 20.9 0.00 0.00 0.00 81 1012.2
20260507084103 9 131 9.7 19.3 0.00 0.00 0.00 80 1012.3
20260507083603 9 176 8.0 20.9 0.00 0.00 0.00 80 1012.2
20260507080603 10 147 11.3 22.5 0.00 0.00 0.00 79 1012.2
20260507074603 9 150 11.3 25.7 0.00 0.00 0.00 80 1012.3
20260507074103 9 172 11.3 25.7 0.00 0.00 0.00 80 1012.2
20260507071103 8 165 8.0 16.1 0.00 0.00 0.00 80 1012.2
20260507070603 8 179 12.9 22.5 0.00 0.00 0.00 80 1012.2
20260507070105 8 181 14.5 27.4 0.00 0.00 0.00 80 1012.2
20260507064103 8 141 14.5 25.7 0.00 0.00 0.00 80 1012.2
20260507063603 8 171 9.7 19.3 0.00 0.00 0.00 80 1012.2
20260507063104 8 162 9.7 25.7 0.00 0.00 0.00 80 1012.2
20260507061603 8 177 9.7 20.9 0.00 0.00 0.00 80 1012.3
20260507061104 8 177 11.3 32.2 0.00 0.00 0.00 81 1012.2
20260507060603 8 140 9.7 24.1 0.00 0.00 0.00 81 1012.2
20260507060104 7 181 8.0 27.4 0.00 0.00 0.00 81 1012.2
20260507054103 7 178 12.9 27.4 0.00 0.00 0.00 81 1012.1
20260507053105 7 207 11.3 27.4 0.00 0.00 0.00 81 1012.1
20260507051603 7 179 14.5 25.7 0.00 0.00 0.00 81 1012.1
20260507044603 7 160 14.5 29.0 0.00 0.00 0.00 81 1012.2
20260507044103 7 176 14.5 29.0 0.00 0.00 0.00 80 1012.2
20260507043604 7 173 11.3 24.1 0.00 0.00 0.00 80 1012.2
20260507034604 7 174 9.7 20.9 0.00 0.00 0.00 79 1012.3
20260507034104 7 182 9.7 32.2 0.00 0.00 0.00 79 1012.3
20260507031604 7 176 8.0 22.5 0.00 0.00 0.00 78 1012.6
20260507030605 7 152 6.4 14.5 0.00 0.00 0.00 77 1012.7
20260507030104 7 152 8.0 22.5 0.00 0.00 0.00 77 1012.7
20260507024603 7 171 11.3 19.3 0.00 0.00 0.00 77 1012.7
20260507024104 7 183 9.7 22.5 0.00 0.00 0.00 76 1012.8
20260507023603 7 178 9.7 20.9 0.00 0.00 0.00 76 1012.8
20260507023104 7 181 9.7 20.9 0.00 0.00 0.00 76 1012.8
20260507021103 7 182 8.0 22.5 0.00 0.00 0.00 75 1012.9
20260507020105 7 161 9.7 19.3 0.00 0.00 0.00 75 1013.0
20260507014603 7 164 4.8 20.9 0.00 0.00 0.00 74 1013.0
20260507014103 7 170 4.8 19.3 0.00 0.00 0.00 74 1013.0